Regional Weather Roundup
Issued by NWS

Home | Current Version | Previous Version | Graphics & Text | Print | Product List | Glossary On
Versions: 1 2 3 4 5 6 7 8 9 10 11 12 13 14 15 16 17 18 19 20 21 22 23 24 25 26 27 28
000
ASUS45 KBOU 242110
RWRCO

WEATHER ROUNDUP FOR COLORADO
NATIONAL WEATHER SERVICE DENVER/BOULDER CO
300 PM MDT THU MAY 24 2018

NOTE: "FAIR" INDICATES FEW OR NO CLOUDS BELOW 12000 FEET WITH NO
SIGNIFICANT WEATHER AND/OR OBSTRUCTIONS TO VISIBILITY.

COZ001>005-013-030-031-242200-
...NORTHWEST COLORADO...

CITY           SKY/WX    TMP DP  RH WIND       PRES   REMARKS
CRAIG          FAIR      73  34  23 W13       30.19S
HAYDEN         FAIR      72  36  26 W15       30.22F
MEEKER         FAIR      77  29  17 MISG      30.19F
RANGELY        FAIR      81  31  16 W9        30.13F
RABBIT EARS PA FAIR      54  32  43 W8G20     30.46R
STEAMBOAT SPGS FAIR      70  36  29 NW9G16    30.23S
WALDEN         FAIR      70  28  21 W21G29    30.30S
$$

COZ006>008-011-242200-
...WEST CENTRAL VALLEYS...

CITY           SKY/WX    TMP DP  RH WIND       PRES   REMARKS
GRAND JUNCTION FAIR      86  28  12 MISG      30.09F
MONTROSE       FAIR      80  20  10 NW10      30.15F
EAGLE          FAIR      77  24  14 NW12      30.21F
RIFLE          FAIR      83  21  10 W18G26    30.13S
DELTA          FAIR      87  22   9 CALM      30.11F
NUCLA          FAIR      82  18   9 NW5       30.18F
$$

COZ017>023-064>068-242200-
...SOUTHWEST COLORADO...

CITY           SKY/WX    TMP DP  RH WIND       PRES   REMARKS
DURANGO        FAIR      79   9   7 MISG      30.22F
CORTEZ         FAIR      84  23  10 SW12G17   30.17F
PAGOSA SPRINGS FAIR      75   6   7 SW8G17    30.30F
TELLURIDE      FAIR      69  17  13 S9        30.37F
WOLF CREEK PAS FAIR      52  16  24 SW13G23   30.61R
$$

COZ009-010-012-014-032>034-037-058>063-242200-
...CENTRAL COLORADO...

CITY           SKY/WX    TMP DP  RH WIND       PRES   REMARKS
ASPEN          FAIR      73  26  17 NW15G22   30.26S
BUENA VISTA    FAIR      72  13  10 NW5       30.25S
COPPER MTN     PTSUNNY   54  23  30 W6        30.55S
BERTHOUD PASS  FAIR      45  34  65 MISG      30.56S
COTTONWOOD PAS CLOUDY    70  12  11 W9        30.39S
GUNNISON       FAIR      75  22  13 W13G20    30.25F
GRANBY         FAIR      69  30  22 W8G20     30.30S
KREMMLING      FAIR      79  23  12 W9G17     30.25S
LEADVILLE      FAIR      63  20  19 NW10      30.39S
MONARCH PASS   FAIR      55  14  19 MISG      30.64S
SALIDA         FAIR      79  11   8 N6G25     30.29F
SUNLIGHT       FAIR      57  27  30 W6G16     30.50F
WILKERSON PASS CLOUDY    57  12  17 SW5       30.52S
$$

COZ069>075-242200-
...SAN LUIS VALLEY/SANGRE DE CRISTO MOUNTAINS...

CITY           SKY/WX    TMP DP  RH WIND       PRES   REMARKS
ALAMOSA        FAIR      78  16   9 S18G28    30.23F
DEL NORTE      FAIR      75  19  12 SW10G18   30.27F
LA VETA PASS   FAIR      68  21  17 S14G30    30.54S
SAGUACHE       NOT AVBL
$$

COZ035-036-038>040-242200-
...NORTHERN COLORADO FRONT RANGE...

CITY           SKY/WX    TMP DP  RH WIND       PRES   REMARKS
DENVER INTL AP FAIR      83  33  16 NW6       30.09S
AURORA         MOSUNNY   81  29  15 SE5       30.10S
FRONT RANGE AP NOT AVBL
ERIE MUNI ARPT FAIR      82  35  18 N6        30.11F
BOULDER MUN AP FAIR      81  36  19 S5        30.07S
CENTENNIAL     PTSUNNY   80  31  16 VRB6      30.10F
BROOMFIELD     MOSUNNY   82  30  15 CALM      30.11S
FORT COLLINS   FAIR      81  41  24 E8        30.06F THUNDER
LONGMONT       FAIR      87  34  15 S6        30.07S
$$

COZ041-046-047-076>085-087-088-242200-
...PIKES PEAK/PALMER DIVIDE AND SOUTHERN FOOTHILLS...

CITY           SKY/WX    TMP DP  RH WIND       PRES   REMARKS
COLO. SPRINGS  FAIR      84  20   9 E10G20    30.12S
A. F. ACADEMY  FAIR      79  24  13 S7        30.13F
SCHRIEVER AFB  NOT AVBL
CHEYENNE MTN   PTSUNNY   74  20  13 E7        30.12F
ELLICOTT       NOT AVBL
FALCON         NOT AVBL
FORT CARSON    PTSUNNY   82  12   7 E10       30.07S
LIMON          PTSUNNY   81  39  22 SE16G26   30.11R
MONUMENT HILL  FAIR      72  34  25 NE10      30.20R
CANON CITY     SUNNY     90  19   7 N7G17     30.05F
WALSENBURG     FAIR      88  19   8 W10G24    30.11F
TRINIDAD       FAIR      84  34  16 SE15G25   30.09F
$$

COZ042>045-048>051-090-091-242200-
...NORTHEAST COLORADO...

CITY           SKY/WX    TMP DP  RH WIND       PRES   REMARKS
GREELEY ARPT   FAIR      82  43  25 SW5       30.06S
AKRON          FAIR      81  44  27 CALM      30.06S
BURLINGTON     FAIR      83  52  34 E6G17     30.03S
WRAY           FAIR      86  50  28 E9        30.00F
YUMA           FAIR      82  43  24 NW3       30.03S
STERLING       FAIR      84  46  26 CALM      30.01S
HOLYOKE        FAIR      86  48  26 N7        30.01S
FORT MORGAN    FAIR      85  29  13 W6G18     30.06S
$$

COZ086-089-092>099-242200-
...SOUTHEAST COLORADO...

CITY           SKY/WX    TMP DP  RH WIND       PRES   REMARKS
PUEBLO         FAIR      90  24   9 VRB7G22   30.01F
LA JUNTA       FAIR      90  43  19 VRB5      30.00F
LAMAR          FAIR      92  44  19 VRB3      29.95F
SPRINGFIELD      N/A     88  41  19 W8        30.00F
$$




USA.gov is the U.S. government's official web portal to all federal, state and local government web resources and services.